Location: Fasanenhof
(48.7107°N, 9.1590°E)
Time: 01:33:09
(UTC+00:00)

ISS - Pass Details

Date: 24 February 2019
Orbit: 406 x 411 km, 51.6° (Epoch: 20 March)

Event Time Altitude Azimuth Distance (km) Brightness Sun altitude
Exits shadow 04:36:54 - 187° (S) 2,227 -0.2 -17.0°
Reaches altitude 10° 04:40:05 10° 149° (SSE) 1,460 -0.7 -16.5°
Maximum altitude 04:40:57 11° 134° (SE) 1,415 -0.5 -16.4°
Drops below altitude 10° 04:41:49 10° 119° (ESE) 1,464 -0.1 -16.2°
Sets 04:45:17 0° 80° (E) 2,331 1.8 -15.6°
